(2020 UF3) |
Classification: Apollo [NEO] SPK-ID: 54075978 |
[ hide orbit diagram ]
For accurate long-term ephemerides, please instead use our Horizons system.This orbit viewer was implemented using two-body methods, and hence should not be used for determining accurate long-term trajectories (over several years or decades) or planetary encounter circumstances.
Orbital Elements at Epoch 2459000.5 (2020-May-31.0) TDB
Reference: JPL 3 (heliocentric ecliptic J2000)
Element | Value | Uncertainty (1-sigma) | Units |
e | .5579638735153458 | 0.00010467 | |
a | 1.002194668863515 | 0.00013829 | au |
q | .443006249407999 | 4.3778e-05 | au |
i | 28.17672655641224 | 0.0084632 | deg |
node | 29.68541804207501 | 4.2961e-06 | deg |
peri | 123.328818683162 | 0.0043688 | deg |
M | 160.3182931767195 | 0.049302 | deg |
tp | 2458837.304890917955 (2019-Dec-19.80489092) | 0.083965 | TDB |
period | 366.4599847303489 1.00 | 0.075851 0.0002077 | d yr |
n | .982371923267141 | 0.00020334 | deg/d |
Q | 1.561383088319032 | 0.00021545 | au |
|
| | Orbit Determination Parameters
Additional Information
|
[ show covariance matrix ]
Physical Parameter Table
Parameter |
Symbol |
Value |
Units |
Sigma |
Reference |
Notes |
absolute magnitude |
H |
28.571 |
|
.44032 |
3 |
autocmod 2.8 |
|
[ show close-approach data ]
|